| time (UTC) | temp F | wind direction | speed MPH | gust MPH | rain 1hr in | rain 24hr in | rain mn in | humidity % | barometer mb |
| 20260503013107 | 77 | 252 | 2.0 | 4.0 | 0.00 | 0.00 | 0.00 | 47 | 1013.1 |
| 20260503011555 | 78 | 240 | 1.0 | 5.0 | 0.00 | 0.00 | 0.00 | 47 | 1013.1 |
| 20260503010051 | 80 | 329 | 2.0 | 6.0 | 0.00 | 0.00 | 0.00 | 42 | 1013.3 |
| 20260503004614 | 81 | 263 | 3.0 | 7.0 | 0.00 | 0.00 | 0.00 | 30 | 1013.0 |
| 20260503003058 | 82 | 240 | 4.0 | 11.0 | 0.00 | 0.00 | 0.00 | 29 | 1013.0 |
| 20260503001554 | 82 | 252 | 3.0 | 9.0 | 0.00 | 0.00 | 0.00 | 23 | 1012.9 |
| 20260503000104 | 83 | 273 | 6.0 | 14.0 | 0.00 | 0.00 | 0.00 | 23 | 1012.7 |
| 20260502234616 | 85 | 221 | 6.0 | 10.0 | 0.00 | 0.00 | 0.00 | 23 | 1012.8 |
| 20260502233054 | 85 | 271 | 5.0 | 11.0 | 0.00 | 0.00 | 0.00 | 22 | 1012.8 |
| 20260502231552 | 86 | 271 | 3.0 | 9.0 | 0.00 | 0.00 | 0.00 | 26 | 1012.7 |
| 20260502230055 | 85 | 300 | 3.0 | 10.0 | 0.00 | 0.00 | 0.00 | 25 | 1012.8 |
| 20260502224812 | 85 | 265 | 4.0 | 13.0 | 0.00 | 0.00 | 0.00 | 29 | 1013.0 |
| 20260502223102 | 85 | 308 | 4.0 | 12.0 | 0.00 | 0.00 | 0.00 | 29 | 1013.2 |
| 20260502221600 | 84 | 250 | 5.0 | 13.0 | 0.00 | 0.00 | 0.00 | 32 | 1013.4 |
| 20260502220101 | 84 | 324 | 6.0 | 14.0 | 0.00 | 0.00 | 0.00 | 29 | 1013.7 |
| 20260502214611 | 84 | 269 | 6.0 | 13.0 | 0.00 | 0.00 | 0.00 | 31 | 1013.6 |
| 20260502213115 | 83 | 278 | 8.0 | 16.0 | 0.00 | 0.00 | 0.00 | 30 | 1013.8 |
| 20260502211555 | 84 | 265 | 8.0 | 18.0 | 0.00 | 0.00 | 0.00 | 29 | 1013.5 |
| 20260502210051 | 84 | 329 | 3.0 | 9.0 | 0.00 | 0.00 | 0.00 | 24 | 1013.5 |
| 20260502204552 | 83 | 249 | 4.0 | 10.0 | 0.00 | 0.00 | 0.00 | 28 | 1013.7 |
| 20260502203112 | 82 | 251 | 5.0 | 11.0 | 0.00 | 0.00 | 0.00 | 29 | 1013.9 |
| 20260502201553 | 81 | 287 | 8.0 | 13.0 | 0.00 | 0.00 | 0.00 | 31 | 1014.1 |
| 20260502200057 | 82 | 260 | 7.0 | 13.0 | 0.00 | 0.00 | 0.00 | 34 | 1014.1 |
| 20260502194552 | 81 | 261 | 9.0 | 14.0 | 0.00 | 0.00 | 0.00 | 36 | 1014.1 |
| 20260502193051 | 83 | 207 | 4.0 | 14.0 | 0.00 | 0.00 | 0.00 | 33 | 1014.3 |
| 20260502191555 | 84 | 213 | 6.0 | 21.0 | 0.00 | 0.00 | 0.00 | 31 | 1014.3 |
| 20260502190053 | 85 | 49 | 7.0 | 13.0 | 0.00 | 0.00 | 0.00 | 17 | 1014.6 |
| 20260502184549 | 83 | 242 | 3.0 | 8.0 | 0.00 | 0.00 | 0.00 | 30 | 1014.7 |
| 20260502183057 | 82 | 218 | 6.0 | 14.0 | 0.00 | 0.00 | 0.00 | 34 | 1014.7 |
| 20260502181552 | 81 | 224 | 8.0 | 19.0 | 0.00 | 0.00 | 0.00 | 35 | 1015.0 |
| 20260502163111 | 81 | 0 | 1.0 | 6.0 | 0.00 | 0.00 | 0.00 | 35 | 1015.7 |
| 20260502161619 | 79 | 0 | 2.0 | 5.0 | 0.00 | 0.00 | 0.00 | 37 | 1015.6 |
| 20260502151551 | 67 | 0 | 0.0 | 2.0 | 0.00 | 0.00 | 0.00 | 52 | 1015.9 |
| 20260502123113 | 42 | 69 | 0.0 | 3.0 | 0.00 | 0.00 | 0.00 | 85 | 1015.3 |
| 20260502121557 | 42 | 70 | 0.0 | 3.0 | 0.00 | 0.00 | 0.00 | 84 | 1015.4 |
| 20260502120107 | 42 | 0 | 0.0 | 1.0 | 0.00 | 0.00 | 0.00 | 83 | 1015.4 |
| 20260502114551 | 43 | 70 | 2.0 | 4.0 | 0.00 | 0.00 | 0.00 | 84 | 1015.3 |
| 20260502113054 | 42 | 69 | 2.0 | 4.0 | 0.00 | 0.00 | 0.00 | 86 | 1015.3 |
| 20260502111553 | 43 | 0 | 0.0 | 0.0 | 0.00 | 0.00 | 0.00 | 84 | 1015.2 |
| 20260502110054 | 44 | 0 | 0.0 | 0.0 | 0.00 | 0.00 | 0.00 | 85 | 1015.2 |
| 20260502104557 | 44 | 0 | 0.0 | 3.0 | 0.00 | 0.00 | 0.00 | 84 | 1015.0 |
| 20260502103055 | 44 | 0 | 0.0 | 1.0 | 0.00 | 0.00 | 0.00 | 86 | 1014.9 |
| 20260502101550 | 44 | 71 | 1.0 | 2.0 | 0.00 | 0.00 | 0.00 | 84 | 1014.9 |
| 20260502070110 | 47 | 0 | 0.0 | 0.0 | 0.00 | 0.00 | 0.00 | 82 | 1015.9 |
| 20260502064555 | 48 | 0 | 0.0 | 0.0 | 0.00 | 0.00 | 0.00 | 82 | 1015.8 |
| 20260502063057 | 49 | 0 | 0.0 | 2.0 | 0.00 | 0.00 | 0.00 | 81 | 1015.9 |
| 20260502061553 | 49 | 0 | 0.0 | 2.0 | 0.00 | 0.00 | 0.00 | 83 | 1015.8 |
| 20260502060056 | 50 | 0 | 0.0 | 3.0 | 0.00 | 0.00 | 0.00 | 82 | 1015.8 |
| 20260502054556 | 50 | 107 | 2.0 | 3.0 | 0.00 | 0.00 | 0.00 | 80 | 1015.7 |
| 20260502053058 | 51 | 109 | 1.0 | 3.0 | 0.00 | 0.00 | 0.00 | 79 | 1015.8 |
| 20260502051603 | 51 | 0 | 1.0 | 3.0 | 0.00 | 0.00 | 0.00 | 80 | 1015.8 |
| 20260502050059 | 52 | 109 | 0.0 | 1.0 | 0.00 | 0.00 | 0.00 | 79 | 1015.8 |
| 20260502044604 | 53 | 0 | 0.0 | 3.0 | 0.00 | 0.00 | 0.00 | 77 | 1015.8 |
| 20260502043058 | 55 | 0 | 0.0 | 1.0 | 0.00 | 0.00 | 0.00 | 78 | 1015.7 |
| 20260502041554 | 56 | 0 | 0.0 | 1.0 | 0.00 | 0.00 | 0.00 | 77 | 1015.6 |
| 20260502040057 | 57 | 0 | 0.0 | 1.0 | 0.00 | 0.00 | 0.00 | 76 | 1015.5 |
| 20260502034600 | 58 | 0 | 0.0 | 1.0 | 0.00 | 0.00 | 0.00 | 76 | 1015.4 |
| 20260502033057 | 59 | 0 | 0.0 | 5.0 | 0.00 | 0.00 | 0.00 | 76 | 1015.2 |
| 20260502031551 | 60 | 225 | 4.0 | 7.0 | 0.00 | 0.00 | 0.00 | 73 | 1014.9 |
| 20260502030049 | 62 | 229 | 2.0 | 6.0 | 0.00 | 0.00 | 0.00 | 71 | 1014.8 |
| 20260502024551 | 63 | 248 | 2.0 | 8.0 | 0.00 | 0.00 | 0.00 | 69 | 1014.5 |
| 20260502023053 | 65 | 236 | 2.0 | 7.0 | 0.00 | 0.00 | 0.00 | 66 | 1014.2 |
| 20260502021558 | 67 | 249 | 4.0 | 8.0 | 0.00 | 0.00 | 0.00 | 63 | 1014.0 |
| 20260502020050 | 68 | 252 | 3.0 | 11.0 | 0.00 | 0.00 | 0.00 | 61 | 1013.8 |
| 20260502014554 | 70 | 313 | 5.0 | 11.0 | 0.00 | 0.00 | 0.00 | 59 | 1013.7 |